Flag for Slovakia Weather past 2 weeks in Bratislava, Slovakia

Now
48 °F

Passing clouds.


Feels Like: 41 °F
Forecast: 41 / 50 °F
Wind: 20 mph from North

Location: Bratislava Ivanka

Current Time: Oct 23, 2014 at 10:46:22 PM

Latest Report: Oct 23, 2014 at 10:00 PM


Visibility: N/A

Pressure: 29.95 "Hg

Humidity: 71%

Dew point: 39 °F

Location of BratislavaLocation

Historic Weather in Bratislava — Graph

°F

Bratislava temperature yesterday

Maximum temperature yesterday: 59 °F (at 12:00 AM)
Minimum temperature yesterday: 45 °F (at 7:30 PM)
Average temperature yesterday: 49 °F

Past Weeks' High & Low Weather Summary

 TemperatureHumidityPressure
High75 °F (Oct 9, 3:00 PM)100% (Oct 14, 5:30 AM)30.33 "Hg (Oct 14, 5:30 AM)
Low45 °F (Oct 22, 7:30 PM)50% (Oct 16, 1:30 PM)29.59 "Hg (Oct 22, 1:30 AM)
Average59 °F80%29.94 "Hg
* Reported Oct 8 9:00 PM — Oct 23 9:30 PM, Bratislava, Weather by CustomWeather, © 2014

Note: Actual official high and low records may vary slightly from our data, if they occured in-between our weather recording intervals... More about our weather records

Advertising

Bratislava weather history for previous 24 hours

 ConditionsComfort  
Time TempWeatherWind HumidityBarometerVisibility
9:30 PM
Oct 23
46 °FPassing clouds.14 mph76%29.95 "HgN/A
9:00 PM46 °FPassing clouds.9 mph76%29.95 "HgN/A
8:30 PM46 °FPassing clouds.14 mph76%29.95 "HgN/A
8:00 PM46 °FPassing clouds.16 mph76%29.95 "HgN/A
7:30 PM48 °FPassing clouds.21 mph76%29.95 "HgN/A
7:00 PM48 °FPartly cloudy.20 mph76%29.92 "HgN/A
6:30 PM48 °FBroken clouds.15 mph76%29.89 "HgN/A
6:00 PM48 °FBroken clouds.15 mph76%29.89 "HgN/A
5:30 PM48 °FPartly sunny.16 mph76%29.89 "HgN/A
5:00 PM48 °FPartly sunny.18 mph82%29.86 "HgN/A
4:30 PM48 °FLight rain. Broken clouds.20 mph82%29.86 "HgN/A
4:00 PM50 °FLight rain. Broken clouds.20 mph76%29.86 "HgN/A
3:30 PM50 °FPartly sunny.16 mph76%29.86 "HgN/A
3:00 PM50 °FPartly sunny.15 mph76%29.83 "HgN/A
2:30 PM50 °FPartly sunny.13 mph76%29.83 "HgN/A
2:00 PM50 °FPartly sunny.12 mph76%29.83 "HgN/A
1:30 PM52 °FBroken clouds.21 mph77%29.80 "HgN/A
1:00 PM52 °FBroken clouds.15 mph77%29.80 "HgN/A
12:30 PM52 °FBroken clouds.13 mph77%29.80 "HgN/A
12:00 PM52 °FBroken clouds.14 mph77%29.80 "HgN/A
11:30 AM50 °FPartly sunny.14 mph76%29.80 "HgN/A
11:00 AM50 °FPartly sunny.14 mph76%29.80 "HgN/A
10:30 AM50 °FPassing clouds.14 mph76%29.80 "HgN/A
10:00 AM50 °FPassing clouds.9 mph76%29.77 "HgN/A
9:30 AM48 °FPassing clouds.9 mph82%29.77 "HgN/A
9:00 AM48 °FPassing clouds.6 mph82%29.77 "HgN/A
8:30 AM46 °FBroken clouds.7 mph87%29.77 "HgN/A
8:00 AM45 °FPassing clouds.6 mph87%29.74 "HgN/A
7:30 AM45 °FPassing clouds.5 mph87%29.74 "HgN/A
7:00 AM45 °FPassing clouds.5 mph87%29.71 "HgN/A
6:30 AM45 °FPassing clouds.6 mph87%29.71 "HgN/A
6:00 AM45 °FPassing clouds.7 mph87%29.71 "HgN/A
5:30 AM45 °FPartly cloudy.6 mph87%29.71 "HgN/A
5:00 AM45 °FPartly cloudy.8 mph87%29.71 "HgN/A
4:30 AM45 °FLight rain. Mostly cloudy.12 mph87%29.71 "HgN/A
4:00 AM45 °FLight rain. Overcast.15 mph87%29.71 "HgN/A
3:30 AM45 °FLight rain. Overcast.13 mph87%29.71 "HgN/A
3:00 AM45 °FLight rain. Mostly cloudy.10 mph87%29.71 "HgN/A
2:30 AM45 °FLight rain. Mostly cloudy.13 mph87%29.71 "Hg6 mi
2:00 AM45 °FLight rain. Partly cloudy.10 mph87%29.71 "HgN/A
1:30 AM45 °FLight rain. Partly cloudy.14 mph87%29.71 "HgN/A
1:00 AM45 °FLight rain. Passing clouds.16 mph87%29.71 "HgN/A
12:30 AM45 °FLight rain. Partly cloudy.13 mph81%29.71 "HgN/A
12:00 AM45 °FLight rain. Passing clouds.15 mph81%29.71 "HgN/A
11:30 PM
Oct 22
45 °FLight rain. Partly cloudy.17 mph81%29.74 "HgN/A
11:00 PM45 °FLight rain. Partly cloudy.14 mph81%29.74 "HgN/A
10:30 PM45 °FLight rain. Partly cloudy.16 mph81%29.74 "HgN/A
10:00 PM45 °FLight rain. Passing clouds.13 mph81%29.74 "HgN/A
Weather by CustomWeather, © 2014

See weather overviewHow to use our weather pages